IZ1UQG-N2 Weather Reports


time (UTC)temp
C
wind
direction
speed
KPH
gust
KPH
rain 1hr
cm
rain 24hr
cm
rain mn
cm
humidity
%
barometer
mb
20260506210344 12 356 1.6 9.7 0.00 3.84 3.84 91 1009.6
20260506210244 12 356 3.2 11.3 0.00 3.84 3.84 91 1009.6
20260506210145 12 355 3.2 11.3 0.00 3.84 3.84 90 1009.6
20260506210045 12 353 4.8 11.3 0.00 3.84 3.84 90 1009.6
20260506205945 12 353 4.8 12.9 0.00 3.84 3.84 90 1009.5
20260506205845 12 353 6.4 12.9 0.00 3.84 3.84 90 1009.6
20260506205745 12 353 6.4 12.9 0.00 3.84 3.84 90 1009.7
20260506205644 12 352 8.0 12.9 0.00 3.84 3.84 90 1009.7
20260506205544 12 352 8.0 12.9 0.00 3.84 3.84 90 1009.7
20260506205444 12 352 8.0 14.5 0.00 3.84 3.84 90 1009.7
20260506205346 12 354 8.0 14.5 0.00 3.84 3.84 90 1009.7
20260506205245 12 354 8.0 14.5 0.00 3.84 3.84 91 1009.7
20260506205145 12 354 8.0 14.5 0.00 3.84 3.84 90 1009.7
20260506205044 12 356 8.0 14.5 0.00 3.84 3.84 90 1009.7
20260506204944 12 356 8.0 14.5 0.00 3.84 3.84 90 1009.7
20260506204844 12 356 8.0 14.5 0.00 3.84 3.84 90 1009.6
20260506204745 12 356 6.4 14.5 0.00 3.84 3.84 90 1009.7
20260506204645 12 356 6.4 14.5 0.00 3.84 3.84 90 1009.6
20260506204545 12 357 6.4 14.5 0.00 3.84 3.84 90 1009.6
20260506204444 12 357 4.8 12.9 0.00 3.84 3.84 90 1009.6
20260506204344 12 355 4.8 12.9 0.00 3.84 3.84 90 1009.6
20260506204244 12 353 4.8 12.9 0.00 3.84 3.84 90 1009.7
20260506204145 12 350 3.2 9.7 0.00 3.84 3.84 90 1009.7
20260506204045 12 346 3.2 9.7 0.00 3.84 3.84 90 1009.7
20260506203945 12 342 3.2 9.7 0.00 3.84 3.84 90 1009.7
20260506203845 12 342 1.6 9.7 0.00 3.84 3.84 90 1009.6
20260506203745 12 337 1.6 6.4 0.00 3.84 3.84 90 1009.7
20260506203646 12 330 1.6 4.8 0.00 3.84 3.84 90 1009.6
20260506203545 12 321 1.6 3.2 0.00 3.84 3.84 90 1009.6
20260506203445 12 319 0.0 1.6 0.00 3.84 3.84 90 1009.6
20260506203345 12 322 0.0 1.6 0.00 3.84 3.84 90 1009.4
20260506203244 12 331 0.0 1.6 0.00 3.84 3.84 90 1009.5
20260506203144 12 15 0.0 1.6 0.00 3.84 3.84 90 1009.4
20260506203046 12 94 0.0 1.6 0.00 3.84 3.84 90 1009.5
20260506202945 12 118 0.0 1.6 0.00 3.84 3.84 90 1009.4
20260506202845 12 124 0.0 1.6 0.00 3.84 3.84 90 1009.3
20260506202745 12 130 0.0 1.6 0.00 3.84 3.84 90 1009.4
20260506202644 12 131 0.0 1.6 0.00 3.84 3.84 90 1009.4
20260506202544 12 132 0.0 1.6 0.00 3.84 3.84 90 1009.4
20260506202444 12 133 0.0 1.6 0.00 3.84 3.84 90 1009.4
20260506202344 12 133 0.0 1.6 0.00 3.84 3.84 90 1009.4
20260506202246 12 136 0.0 3.2 0.00 3.84 3.84 90 1009.3
20260506202145 12 141 0.0 3.2 0.00 3.84 3.84 90 1009.3
20260506202045 12 144 0.0 3.2 0.00 3.84 3.84 89 1009.3
20260506201945 12 151 0.0 3.2 0.00 3.84 3.84 89 1009.3
20260506201846 12 152 0.0 3.2 0.00 3.84 3.84 90 1009.2
20260506201745 12 159 0.0 3.2 0.00 3.84 3.84 89 1009.2
20260506201645 12 162 0.0 3.2 0.00 3.84 3.84 90 1009.2
20260506201545 12 168 0.0 3.2 0.00 3.84 3.84 90 1009.1
20260506201444 12 170 0.0 3.2 0.00 3.84 3.84 90 1009.1
20260506201344 12 172 0.0 3.2 0.00 3.84 3.84 89 1009.2
20260506201244 12 211 0.0 1.6 0.03 3.84 3.84 90 1009.2
20260506201145 12 227 0.0 1.6 0.03 3.84 3.84 90 1009.1
20260506201045 12 227 0.0 1.6 0.03 3.84 3.84 89 1009.1
20260506200945 12 273 0.0 0.0 0.03 3.94 3.84 90 1009.1
20260506200845 12 276 0.0 0.0 0.03 3.94 3.84 90 1009.1
20260506200745 12 276 0.0 0.0 0.03 3.94 3.84 90 1009.1
20260506200644 12 276 0.0 0.0 0.03 3.94 3.84 90 1009.1
20260506200545 12 276 0.0 1.6 0.03 3.94 3.84 90 1009.1
20260506200445 12 276 0.0 1.6 0.03 3.94 3.84 90 1009.1
20260506200345 12 279 0.0 1.6 0.05 3.94 3.84 89 1009.0
20260506200244 12 280 0.0 1.6 0.05 3.94 3.84 89 1009.1
20260506200146 12 285 0.0 3.2 0.05 3.94 3.84 89 1009.0
20260506200046 12 286 0.0 3.2 0.05 3.94 3.84 89 1009.0
20260506195944 12 289 0.0 3.2 0.05 3.94 3.84 89 1009.0
20260506195844 12 296 1.6 4.8 0.08 3.94 3.84 90 1009.0
20260506195744 12 300 1.6 4.8 0.08 3.94 3.84 89 1009.0
20260506195645 12 304 1.6 4.8 0.08 3.94 3.84 89 1008.9
20260506195545 12 310 1.6 4.8 0.08 3.94 3.84 89 1008.9
20260506195445 12 313 1.6 4.8 0.08 3.94 3.84 89 1008.9
20260506195345 12 316 1.6 4.8 0.08 3.94 3.84 89 1008.9
20260506195245 12 318 1.6 4.8 0.08 3.94 3.84 89 1009.0
20260506195145 12 321 1.6 4.8 0.08 3.94 3.84 89 1008.9
20260506195044 12 324 1.6 4.8 0.10 3.94 3.84 89 1008.9
20260506194945 12 326 1.6 4.8 0.10 3.94 3.84 90 1008.8
20260506194845 12 327 1.6 3.2 0.10 3.94 3.84 90 1008.9
20260506194745 12 330 1.6 3.2 0.10 3.94 3.84 90 1008.7
20260506194645 12 331 1.6 3.2 0.13 3.94 3.84 90 1008.8
20260506194545 12 335 1.6 3.2 0.13 3.94 3.84 90 1008.8
20260506194445 12 336 1.6 3.2 0.13 3.94 3.84 90 1008.8
20260506194345 12 337 1.6 3.2 0.13 3.94 3.84 90 1008.8
20260506194246 12 339 1.6 3.2 0.13 3.94 3.84 89 1008.8
20260506194145 12 342 1.6 3.2 0.15 3.94 3.84 89 1008.8
20260506194045 12 344 1.6 3.2 0.15 3.94 3.84 89 1008.7
20260506193944 12 348 1.6 3.2 0.15 3.94 3.84 89 1008.8
20260506193844 12 348 1.6 3.2 0.15 3.94 3.84 89 1008.8
20260506193744 12 349 1.6 3.2 0.15 3.94 3.84 89 1008.8
20260506193644 12 350 1.6 3.2 0.18 3.94 3.84 89 1008.7
20260506193545 12 349 0.0 3.2 0.18 3.94 3.84 89 1008.8
20260506193445 12 351 0.0 3.2 0.18 3.94 3.84 89 1008.7
20260506193344 12 354 0.0 3.2 0.18 3.94 3.84 89 1008.7
20260506193246 12 358 0.0 3.2 0.20 3.94 3.84 89 1008.6
20260506193145 12 1 0.0 3.2 0.23 3.94 3.84 89 1008.7
20260506193045 12 350 0.0 1.6 0.25 3.94 3.84 89 1008.7
20260506192945 12 345 0.0 1.6 0.23 3.94 3.84 89 1008.7
20260506192844 12 341 0.0 1.6 0.25 3.94 3.84 88 1008.7
20260506192746 12 339 0.0 1.6 0.25 3.94 3.84 89 1008.7
20260506192644 12 339 0.0 3.2 0.28 3.94 3.84 89 1008.7
20260506192545 12 338 0.0 3.2 0.28 3.94 3.84 89 1008.5
20260506192444 12 337 0.0 3.2 0.28 3.94 3.84 88 1008.6
20260506192344 12 336 1.6 3.2 0.28 3.94 3.84 88 1008.6
20260506192245 12 336 1.6 3.2 0.28 3.94 3.84 88 1008.5
20260506192144 12 334 1.6 3.2 0.28 3.94 3.84 88 1008.5
20260506192044 12 335 1.6 3.2 0.28 3.94 3.84 88 1008.4
20260506191944 12 335 1.6 3.2 0.28 3.94 3.84 88 1008.3
20260506191844 12 333 1.6 3.2 0.28 3.94 3.84 88 1008.4
20260506191743 12 330 1.6 3.2 0.28 3.94 3.84 88 1008.4
20260506191449 12 319 1.6 3.2 0.28 3.94 3.84 87 1008.4
20260506191348 12 308 1.6 3.2 0.28 3.94 3.84 87 1008.3
20260506191247 12 288 1.6 4.8 0.28 3.91 3.81 87 1008.4
20260506191146 12 270 1.6 4.8 0.28 3.91 3.81 87 1008.4
20260506191048 12 256 1.6 4.8 0.28 3.91 3.81 86 1008.4
20260506190948 12 240 3.2 9.7 0.28 3.91 3.81 86 1008.3
20260506190846 12 227 3.2 9.7 0.28 3.91 3.81 86 1008.3
20260506190748 12 217 3.2 9.7 0.28 3.91 3.81 86 1008.3
20260506190647 12 211 3.2 9.7 0.28 3.91 3.81 85 1008.4
20260506190547 12 208 4.8 9.7 0.28 3.91 3.81 85 1008.3
20260506190447 12 206 4.8 9.7 0.25 3.89 3.78 85 1008.2
20260506190349 12 204 4.8 9.7 0.25 3.89 3.78 85 1008.2
20260506190247 12 203 6.4 11.3 0.25 3.89 3.78 84 1008.3
20260506190147 12 203 6.4 11.3 0.25 3.89 3.78 84 1008.2
20260506190047 12 202 6.4 11.3 0.25 3.89 3.78 84 1008.2
20260506185946 12 200 6.4 11.3 0.23 3.86 3.76 84 1008.2
20260506185848 12 200 6.4 11.3 0.23 3.86 3.76 84 1008.1
20260506185748 12 199 6.4 11.3 0.23 3.86 3.76 84 1008.1
20260506185647 12 198 6.4 11.3 0.20 3.84 3.76 84 1008.2
20260506185547 12 198 6.4 11.3 0.20 3.84 3.76 83 1008.2
20260506185447 12 198 4.8 11.3 0.20 3.84 3.76 83 1008.1
20260506185347 12 199 4.8 11.3 0.20 3.84 3.76 83 1008.0
20260506185248 13 197 4.8 9.7 0.20 3.84 3.76 82 1008.0
20260506185147 13 197 3.2 9.7 0.20 3.84 3.76 82 1008.1
20260506185047 13 196 3.2 9.7 0.18 3.84 3.73 82 1008.1
20260506184949 13 197 1.6 6.4 0.18 3.84 3.73 82 1008.0
20260506184848 13 197 1.6 4.8 0.18 3.84 3.73 82 1008.0
20260506184746 13 199 1.6 4.8 0.18 3.84 3.73 82 1008.0
20260506184647 13 203 0.0 4.8 0.18 3.81 3.71 81 1007.8
20260506184547 13 213 0.0 4.8 0.18 3.81 3.71 81 1007.7
20260506184447 13 217 0.0 4.8 0.18 3.81 3.71 81 1007.7
20260506184348 13 225 0.0 4.8 0.18 3.81 3.71 81 1007.7
20260506184248 13 229 0.0 4.8 0.18 3.81 3.71 81 1007.7
20260506184147 13 234 0.0 4.8 0.15 3.78 3.68 80 1007.8
20260506184047 13 239 0.0 4.8 0.15 3.78 3.68 79 1007.8
20260506183947 13 235 0.0 4.8 0.15 3.78 3.68 79 1007.6
20260506183847 13 227 0.0 4.8 0.15 3.78 3.68 79 1007.7
20260506183747 13 215 1.6 4.8 0.13 3.76 3.66 78 1007.7
20260506183647 13 209 1.6 4.8 0.13 3.76 3.66 78 1007.6
20260506183546 13 206 1.6 3.2 0.10 3.76 3.66 77 1007.4
20260506183448 14 209 1.6 3.2 0.10 3.76 3.66 77 1007.5
20260506183348 14 211 1.6 3.2 0.08 3.73 3.63 77 1007.5
20260506183248 14 214 1.6 3.2 0.08 3.73 3.63 76 1007.4
20260506183147 14 220 1.6 3.2 0.08 3.71 3.61 76 1007.3
20260506183047 14 222 1.6 3.2 0.05 3.68 3.58 76 1007.3
20260506182946 14 236 1.6 4.8 0.05 3.68 3.58 75 1007.4
20260506182848 14 245 1.6 4.8 0.03 3.66 3.56 75 1007.2
20260506182748 14 266 1.6 4.8 0.00 3.66 3.56 75 1007.3
20260506182646 14 281 1.6 4.8 0.00 3.66 3.56 74 1007.3
20260506182548 14 286 1.6 4.8 0.00 3.66 3.56 74 1007.2
20260506182448 14 287 1.6 4.8 0.00 3.66 3.56 74 1007.2
20260506182346 14 280 1.6 4.8 0.00 3.63 3.53 75 1007.2
20260506182247 14 284 1.6 4.8 0.00 3.63 3.53 75 1007.1
20260506182147 14 300 1.6 4.8 0.00 3.63 3.53 75 1007.1
20260506182047 14 315 1.6 4.8 0.00 3.63 3.53 75 1007.1
20260506181951 14 323 1.6 4.8 0.00 3.63 3.53 75 1007.2
20260506181852 14 326 1.6 6.4 0.00 3.63 3.53 75 1007.1
20260506181750 14 323 1.6 6.4 0.00 3.63 3.53 74 1007.1
20260506181651 14 324 3.2 11.3 0.00 3.63 3.53 74 1007.1
20260506181551 14 322 3.2 11.3 0.00 3.63 3.53 74 1007.1
20260506181451 14 324 3.2 11.3 0.00 3.63 3.53 74 1007.2
20260506181352 14 330 3.2 11.3 0.00 3.63 3.53 74 1007.2
20260506181252 14 331 3.2 11.3 0.00 3.63 3.53 74 1007.1
20260506181151 14 328 3.2 11.3 0.00 3.63 3.53 73 1007.1
20260506181051 14 325 4.8 11.3 0.00 3.63 3.53 73 1007.1
20260506180951 14 325 4.8 11.3 0.00 3.63 3.53 73 1007.1
20260506180850 14 326 4.8 11.3 0.00 3.63 3.53 73 1007.1
20260506180752 14 327 3.2 11.3 0.00 3.63 3.53 73 1007.1
20260506180651 14 334 3.2 9.7 0.00 3.63 3.53 73 1007.1
20260506180551 14 337 3.2 9.7 0.00 3.63 3.53 73 1007.1
20260506180451 14 340 3.2 11.3 0.00 3.63 3.53 73 1007.0
20260506180352 14 350 3.2 11.3 0.00 3.63 3.53 73 1007.1
20260506180250 14 13 3.2 11.3 0.00 3.63 3.53 72 1007.1
20260506180152 14 42 3.2 11.3 0.00 3.63 3.53 72 1007.1
20260506180052 14 61 3.2 11.3 0.00 3.63 3.53 72 1007.0
20260506175950 14 73 3.2 11.3 0.00 3.63 3.53 72 1007.0
20260506175851 14 77 3.2 11.3 0.00 3.63 3.53 72 1006.9
20260506175751 14 87 3.2 11.3 0.00 3.63 3.53 72 1006.9
20260506175650 14 92 3.2 11.3 0.00 3.63 3.53 72 1006.9
20260506175550 14 95 3.2 11.3 0.00 3.63 3.53 72 1006.8
20260506175450 14 89 3.2 12.9 0.00 3.63 3.53 72 1006.8
20260506175350 14 85 4.8 12.9 0.00 3.63 3.53 72 1006.8
20260506175251 14 81 4.8 12.9 0.00 3.63 3.53 72 1006.8
20260506175151 14 72 4.8 12.9 0.00 3.63 3.53 72 1006.7
20260506175049 14 63 4.8 12.9 0.00 3.63 3.53 72 1006.7
20260506174951 14 63 4.8 12.9 0.00 3.73 3.53 72 1006.7
20260506174851 14 62 4.8 12.9 0.00 3.73 3.53 72 1006.8
20260506174751 14 56 4.8 12.9 0.00 3.73 3.53 72 1006.7
20260506174652 14 50 4.8 12.9 0.00 3.73 3.53 72 1006.7
20260506174552 14 45 4.8 12.9 0.00 3.73 3.53 71 1006.6
20260506174449 14 37 4.8 12.9 0.00 3.73 3.53 71 1006.6
20260506174351 14 27 4.8 9.7 0.00 3.73 3.53 71 1006.6
20260506174251 14 22 4.8 9.7 0.00 3.73 3.53 72 1006.4
20260506174150 14 17 4.8 9.7 0.00 3.73 3.53 72 1006.4
20260506174052 14 15 4.8 9.7 0.00 3.73 3.53 73 1006.4
20260506173952 14 8 4.8 9.7 0.00 3.73 3.53 73 1006.3
20260506173851 14 357 4.8 9.7 0.00 3.73 3.53 73 1006.3
20260506173751 14 351 4.8 9.7 0.00 3.73 3.53 73 1006.2
20260506173651 14 343 4.8 11.3 0.00 3.73 3.53 73 1006.3
20260506173550 14 340 6.4 11.3 0.00 3.73 3.53 73 1006.2
20260506173450 14 336 6.4 11.3 0.00 3.73 3.53 73 1006.3
20260506173352 14 334 6.4 11.3 0.00 3.73 3.53 73 1006.3
20260506173249 14 332 6.4 11.3 0.00 3.73 3.53 73 1006.2
20260506173151 14 330 6.4 11.3 0.00 3.73 3.53 73 1006.3
20260506173051 14 328 6.4 11.3 0.00 3.73 3.53 73 1006.4
20260506172951 14 328 8.0 14.5 0.00 3.73 3.53 73 1006.3
20260506172851 14 329 8.0 14.5 0.00 3.73 3.53 73 1006.3
20260506172751 14 328 8.0 14.5 0.00 3.73 3.53 73 1006.3
20260506172650 14 328 8.0 14.5 0.00 3.73 3.53 73 1006.2
20260506172552 14 329 8.0 14.5 0.00 3.73 3.53 73 1006.3
20260506172452 14 331 8.0 14.5 0.00 3.73 3.53 74 1006.3
20260506172351 14 330 8.0 14.5 0.00 3.73 3.53 73 1006.3
20260506172252 14 329 8.0 14.5 0.00 3.73 3.53 74 1006.2
20260506172152 14 329 8.0 14.5 0.00 3.73 3.53 73 1006.3
20260506172051 14 328 8.0 14.5 0.00 3.73 3.53 73 1006.3
20260506171951 14 328 8.0 12.9 0.00 3.73 3.53 73 1006.4
20260506171852 14 328 8.0 12.9 0.00 3.73 3.53 73 1006.4
20260506171752 14 329 8.0 12.9 0.00 3.73 3.53 74 1006.4
20260506171652 14 329 6.4 12.9 0.00 3.73 3.53 75 1006.5
20260506171552 14 329 6.4 12.9 0.00 3.73 3.53 74 1006.4
20260506171450 14 328 6.4 12.9 0.00 3.73 3.53 73 1006.5
20260506171351 14 328 6.4 12.9 0.00 3.73 3.53 73 1006.5
20260506171251 14 330 4.8 12.9 0.00 3.73 3.53 73 1006.5
20260506171151 14 329 4.8 12.9 0.00 3.73 3.53 73 1006.6
20260506171051 14 332 3.2 12.9 0.00 3.73 3.53 73 1006.5
20260506170951 14 334 3.2 9.7 0.00 3.73 3.53 72 1006.5
20260506170850 14 335 3.2 9.7 0.00 3.73 3.53 72 1006.5
20260506170752 14 337 1.6 6.4 0.00 3.73 3.53 72 1006.4
20260506170652 14 341 1.6 6.4 0.00 3.73 3.53 72 1006.4
20260506170549 14 343 0.0 6.4 0.00 3.73 3.53 72 1006.4
20260506170451 14 352 0.0 4.8 0.00 3.73 3.53 72 1006.4
20260506170351 14 10 0.0 4.8 0.00 3.73 3.53 71 1006.4
20260506170251 14 111 0.0 3.2 0.00 3.73 3.53 72 1006.4
20260506170150 14 119 0.0 1.6 0.00 3.73 3.53 71 1006.4
20260506170050 14 125 0.0 1.6 0.00 3.73 3.53 71 1006.4
20260506165950 14 134 0.0 1.6 0.00 3.73 3.53 71 1006.3
20260506165851 14 142 0.0 1.6 0.00 3.73 3.53 71 1006.3
20260506165751 14 142 0.0 1.6 0.00 3.73 3.53 72 1006.3
20260506165651 14 143 0.0 1.6 0.00 3.73 3.53 72 1006.3
20260506165551 14 139 0.0 1.6 0.00 3.73 3.53 73 1006.2
20260506165451 14 147 0.0 1.6 0.00 3.73 3.53 73 1006.3
20260506165350 14 162 0.0 1.6 0.00 3.73 3.53 73 1006.2
20260506165251 14 277 0.0 1.6 0.00 3.73 3.53 74 1006.2
20260506165151 14 301 0.0 1.6 0.00 3.73 3.53 74 1006.2
20260506165051 14 310 0.0 1.6 0.00 3.73 3.53 73 1006.2
20260506164951 14 325 0.0 3.2 0.00 3.73 3.53 73 1006.1
20260506164850 14 332 0.0 3.2 0.00 3.73 3.53 72 1006.1
20260506164750 14 329 1.6 6.4 0.00 3.73 3.53 71 1006.0
20260506164652 14 333 1.6 6.4 0.00 3.73 3.53 71 1006.0
20260506164552 14 335 1.6 9.7 0.00 3.73 3.53 71 1006.0
20260506164449 14 335 3.2 9.7 0.00 3.73 3.53 70 1006.0
20260506164351 14 337 3.2 11.3 0.00 3.73 3.53 70 1006.0
20260506164251 14 336 4.8 11.3 0.00 3.73 3.53 70 1006.0
20260506164151 14 338 4.8 11.3 0.00 3.73 3.53 70 1006.0
20260506164051 14 338 4.8 11.3 0.00 3.73 3.53 70 1006.1
20260506163951 14 339 6.4 14.5 0.00 3.73 3.53 70 1006.2
20260506163850 14 344 6.4 14.5 0.00 3.73 3.53 70 1006.2
20260506163752 14 352 6.4 14.5 0.00 3.73 3.53 71 1006.2
20260506163652 14 4 6.4 14.5 0.00 3.73 3.53 70 1006.2
20260506163549 14 19 8.0 16.1 0.00 3.73 3.53 70 1006.1
20260506163451 14 37 8.0 16.1 0.00 3.73 3.53 70 1006.1
20260506163350 15 51 8.0 17.7 0.00 3.73 3.53 69 1006.2
20260506163250 15 56 8.0 20.9 0.00 3.73 3.53 68 1006.2
20260506163151 15 61 9.7 20.9 0.00 3.73 3.53 67 1006.1
20260506163051 15 64 9.7 20.9 0.00 3.73 3.53 67 1006.2
20260506162951 15 67 9.7 20.9 0.00 3.73 3.53 67 1006.2
20260506162852 15 67 9.7 20.9 0.00 3.73 3.53 66 1006.2
20260506162752 15 65 9.7 20.9 0.00 3.73 3.53 65 1006.2
20260506162650 15 62 9.7 20.9 0.00 3.73 3.53 65 1006.2
20260506162552 15 61 9.7 20.9 0.00 3.73 3.53 65 1006.0
20260506162452 15 57 9.7 20.9 0.00 3.73 3.53 65 1006.0
20260506162351 15 56 8.0 20.9 0.00 3.73 3.53 66 1005.9
20260506162252 15 63 8.0 17.7 0.00 3.73 3.53 66 1005.8
20260506162152 15 64 8.0 16.1 0.00 3.73 3.53 66 1005.8
20260506162050 15 63 8.0 16.1 0.00 3.73 3.53 66 1005.8
20260506161952 15 65 8.0 17.7 0.00 3.73 3.53 66 1005.8
20260506161851 15 68 9.7 17.7 0.00 3.73 3.53 66 1005.7
20260506161751 15 71 9.7 17.7 0.00 3.73 3.53 67 1005.7
20260506161652 15 73 9.7 19.3 0.00 3.73 3.53 67 1005.7
20260506161552 15 74 9.7 19.3 0.00 3.73 3.53 68 1005.7
20260506161450 14 75 9.7 19.3 0.00 3.73 3.53 68 1005.7
20260506161351 14 73 11.3 19.3 0.00 3.73 3.53 68 1005.6
20260506161251 14 71 11.3 19.3 0.00 3.73 3.53 67 1005.6
20260506161151 14 72 11.3 19.3 0.00 3.73 3.53 67 1005.6
20260506161051 14 75 11.3 19.3 0.00 3.73 3.53 67 1005.6
20260506160951 14 76 11.3 19.3 0.00 3.73 3.53 67 1005.6
20260506160850 14 75 11.3 19.3 0.00 3.73 3.53 67 1005.6
20260506160752 14 68 11.3 19.3 0.00 3.73 3.53 68 1005.7
20260506160651 14 65 8.0 9.7 0.00 3.73 3.53 69 1005.6
20260506160551 14 76 8.0 9.7 0.00 3.73 3.53 69 1005.7
20260506160451 14 81 6.4 9.7 0.00 3.73 3.53 69 1005.6
20260506160350 14 97 9.7 9.7 0.00 3.73 3.53 69 1005.6
20260506072623 11 301 3.2 4.8 0.00 0.56 0.15 93 1006.5
20260506072540 11 308 3.2 4.8 0.00 0.51 0.10 93 1006.5
20260506072522 11 308 3.2 4.8 0.00 0.51 0.10 93 1006.5
20260506072422 11 316 3.2 4.8 0.00 0.58 0.08 93 1006.6
20260506071632 11 335 4.8 9.7 0.00 0.56 0.08 93 1006.7
20260506071532 11 336 4.8 9.7 0.00 0.56 0.08 93 1006.7
20260506071432 11 337 4.8 9.7 0.00 0.66 0.08 93 1006.7
20260506071332 11 338 4.8 9.7 0.00 0.64 0.05 93 1006.7
20260506071232 11 340 3.2 9.7 0.00 0.64 0.05 93 1006.7
20260506071132 11 342 3.2 9.7 0.00 0.64 0.05 93 1006.8
20260506071032 11 343 3.2 9.7 0.00 0.64 0.05 93 1006.7
20260506070933 11 340 3.2 9.7 0.00 0.64 0.05 93 1006.7
20260506070832 11 338 1.6 9.7 0.00 0.64 0.05 93 1006.7
20260506070731 11 339 1.6 6.4 0.00 0.64 0.05 93 1006.8
20260506070631 11 332 1.6 6.4 0.00 0.64 0.03 93 1006.8
20260506070531 11 317 1.6 4.8 0.00 0.64 0.03 93 1006.8
20260506070433 11 240 0.0 4.8 0.00 0.64 0.03 93 1006.8
20260506070332 11 234 0.0 4.8 0.00 0.61 0.00 93 1006.7
20260506070232 11 229 0.0 4.8 0.00 0.61 0.00 93 1006.8
20260506070132 11 236 0.0 4.8 0.00 0.61 0.00 93 1006.9
20260506062432 11 274 1.6 9.7 0.56 1.78 0.84 93 1006.6
20260506062408 11 274 1.6 9.7 0.56 1.78 0.84 93 1006.6
20260506062331 11 264 1.6 6.4 0.56 1.75 0.81 93 1006.8
20260506062232 11 262 1.6 4.8 0.56 1.78 0.81 93 1006.7
20260506062132 11 270 1.6 4.8 0.56 1.73 0.76 93 1006.7
20260506062108 11 270 1.6 4.8 0.56 1.73 0.76 93 1006.7
20260506062032 11 287 1.6 3.2 0.53 1.70 0.74 93 1006.6
20260506061933 11 302 1.6 6.4 0.51 1.70 0.74 93 1006.6
20260506061832 11 310 1.6 6.4 0.53 1.70 0.71 93 1006.6
20260506061808 11 310 1.6 6.4 0.53 1.70 0.71 93 1006.6
20260506061732 11 319 1.6 6.4 0.51 1.70 0.69 93 1006.6
20260506061632 11 321 1.6 6.4 0.51 1.68 0.66 93 1006.6
20260506061532 11 318 1.6 6.4 0.48 1.68 0.64 93 1006.6
20260506061507 11 318 1.6 6.4 0.48 1.68 0.64 93 1006.6
20260506061431 11 315 3.2 6.4 0.51 1.68 0.64 93 1006.6
20260506061332 11 313 3.2 6.4 0.51 1.68 0.64 93 1006.6
20260506061232 11 310 3.2 6.4 0.51 1.68 0.64 93 1006.6
20260506061208 11 310 3.2 6.4 0.51 1.68 0.64 93 1006.6
20260506061132 11 309 3.2 6.4 0.56 1.68 0.64 93 1006.5
20260506061032 11 310 3.2 6.4 0.53 1.68 0.61 93 1006.5
20260506060932 11 312 3.2 6.4 0.53 1.65 0.58 93 1006.5
20260506060909 11 312 3.2 6.4 0.53 1.65 0.58 93 1006.5
20260506060832 11 315 3.2 6.4 0.53 1.65 0.58 93 1006.6
20260506060449 11 325 1.6 4.8 0.48 1.65 0.56 93 1006.6
20260506060350 11 335 1.6 4.8 0.48 1.65 0.56 93 1006.6
20260506060308 11 338 1.6 4.8 0.48 1.68 0.56 93 1006.5
20260506060250 11 338 1.6 4.8 0.48 1.68 0.56 93 1006.5
20260506060150 11 339 3.2 4.8 0.46 1.65 0.53 93 1006.5
20260506051351 11 346 1.6 3.2 0.10 1.47 0.10 93 1006.9
20260506051250 11 347 1.6 3.2 0.08 1.45 0.08 93 1006.9
20260506051208 11 347 1.6 3.2 0.08 1.45 0.08 93 1006.9
20260506051150 11 346 1.6 3.2 0.08 1.45 0.08 93 1007.0
20260506051050 11 346 1.6 3.2 0.08 1.45 0.08 93 1007.1
20260506050950 11 345 1.6 3.2 0.05 1.42 0.05 93 1007.0
20260506050909 11 345 1.6 3.2 0.05 1.42 0.05 93 1007.0
20260506050851 11 347 1.6 3.2 0.05 1.42 0.05 93 1007.0
20260506050751 11 350 0.0 3.2 0.05 1.45 0.05 93 1007.0
20260506050650 11 349 0.0 3.2 0.05 1.45 0.05 93 1007.0
20260506050609 11 349 0.0 3.2 0.05 1.45 0.05 93 1007.0
20260506050551 11 349 0.0 1.6 0.05 1.45 0.05 93 1007.0
20260506050450 11 350 0.0 1.6 0.05 1.45 0.05 93 1007.1
20260506050351 11 350 0.0 1.6 0.05 1.45 0.05 93 1007.1
20260506050308 11 350 0.0 1.6 0.05 1.45 0.05 93 1007.1
20260506050250 11 350 0.0 1.6 0.05 1.45 0.05 93 1007.1
20260506050150 11 350 0.0 1.6 0.05 1.47 0.05 92 1007.1
20260506045108 11 336 1.6 3.2 0.05 1.50 0.05 92 1007.1
20260506045050 11 334 1.6 3.2 0.05 1.50 0.05 92 1007.1
20260506044950 11 332 1.6 3.2 0.05 1.50 0.05 93 1007.2
20260506044851 11 330 1.6 3.2 0.05 1.50 0.05 93 1007.2
20260506044809 11 330 1.6 3.2 0.05 1.50 0.05 93 1007.2
20260506044751 11 330 1.6 3.2 0.05 1.50 0.05 92 1007.2
20260506044651 11 327 1.6 3.2 0.05 1.50 0.05 92 1007.2
20260506044551 11 328 1.6 3.2 0.03 1.50 0.03 92 1007.2
20260506044508 11 328 1.6 3.2 0.03 1.50 0.03 92 1007.2
20260506044450 11 329 1.6 3.2 0.03 1.50 0.03 93 1007.3
20260506044351 11 329 1.6 3.2 0.03 1.50 0.03 92 1007.3
20260506044251 11 328 1.6 3.2 0.00 1.50 0.00 93 1007.3
20260506044209 11 328 1.6 3.2 0.00 1.50 0.00 93 1007.3
20260506044151 11 330 1.6 3.2 0.00 1.50 0.00 93 1007.3
20260506044051 11 329 1.6 3.2 0.00 1.50 0.00 92 1007.2
20260506043951 11 327 1.6 3.2 0.00 1.50 0.00 93 1007.3
20260506043908 11 327 1.6 3.2 0.00 1.50 0.00 93 1007.3
20260506043850 11 328 1.6 3.2 0.00 1.50 0.00 92 1007.2
20260506043750 11 328 1.6 3.2 0.00 1.50 0.00 93 1007.3
20260506043650 11 327 3.2 3.2 0.00 1.50 0.00 92 1007.3
20260506043607 11 327 3.2 3.2 0.00 1.50 0.00 92 1007.3
20260506043549 11 325 1.6 3.2 0.00 1.50 0.00 92 1007.3
20260506043449 11 323 1.6 3.2 0.00 1.50 0.00 92 1007.4
20260506043350 11 321 1.6 3.2 0.00 1.50 0.00 92 1007.4
20260506043308 11 321 1.6 3.2 0.00 1.50 0.00 92 1007.4
20260506043250 11 318 1.6 3.2 0.00 1.50 0.00 92 1007.4
20260506043150 11 314 1.6 3.2 0.00 1.50 0.00 92 1007.4
20260506043050 11 311 1.6 3.2 0.00 1.50 0.00 93 1007.4
20260506043007 11 311 1.6 3.2 0.00 1.50 0.00 93 1007.4
20260506042949 11 312 1.6 3.2 0.00 1.50 0.00 93 1007.4
20260506042851 11 311 1.6 3.2 0.00 1.50 0.00 92 1007.4
20260506042751 11 310 1.6 3.2 0.00 1.50 0.00 92 1007.4
20260506042708 11 310 1.6 3.2 0.00 1.50 0.00 92 1007.4
20260506042650 11 310 1.6 3.2 0.00 1.50 0.00 92 1007.4
20260506042550 11 315 3.2 3.2 0.00 1.50 0.00 93 1007.4
20260506042450 11 319 3.2 3.2 0.00 1.50 0.00 92 1007.4
20260506042408 11 319 3.2 3.2 0.00 1.50 0.00 92 1007.4
20260506042350 11 322 3.2 3.2 0.00 1.50 0.00 92 1007.5
20260506042250 11 326 3.2 4.8 0.00 1.50 0.00 92 1007.4
20260506042150 11 329 3.2 4.8 0.00 1.50 0.00 92 1007.5
20260506042107 11 329 3.2 4.8 0.00 1.50 0.00 92 1007.5
20260506042049 11 332 3.2 4.8 0.00 1.50 0.00 92 1007.5
20260506041949 11 335 3.2 4.8 0.00 1.52 0.00 92 1007.5
20260506041851 11 339 3.2 4.8 0.00 1.52 0.00 92 1007.5
20260506041809 11 339 3.2 4.8 0.00 1.52 0.00 92 1007.5
20260506041751 11 343 3.2 4.8 0.00 1.52 0.00 92 1007.6
20260506041651 11 345 3.2 4.8 0.00 1.52 0.00 92 1007.5
20260506041551 11 346 3.2 4.8 0.00 1.52 0.00 92 1007.7
20260506041508 11 346 3.2 4.8 0.00 1.52 0.00 92 1007.7
20260506041450 11 346 3.2 4.8 0.00 1.52 0.00 92 1007.6
20260506041350 11 346 3.2 4.8 0.00 1.52 0.00 92 1007.6
20260506041250 11 347 3.2 4.8 0.00 1.52 0.00 92 1007.6
20260506041208 11 347 3.2 4.8 0.00 1.52 0.00 92 1007.6
20260506041150 11 349 3.2 4.8 0.00 1.52 0.00 92 1007.6
20260506041050 11 350 3.2 4.8 0.00 1.52 0.00 92 1007.5
20260506040950 11 350 3.2 4.8 0.00 1.52 0.00 92 1007.6
20260506040909 11 350 3.2 4.8 0.00 1.52 0.00 92 1007.6
20260506040851 11 349 3.2 4.8 0.00 1.52 0.00 92 1007.6
20260506040751 11 349 3.2 4.8 0.00 1.52 0.00 92 1007.6
20260506040650 11 349 3.2 4.8 0.00 1.52 0.00 92 1007.7
20260506040608 11 349 3.2 4.8 0.00 1.52 0.00 92 1007.7
20260506040550 11 349 3.2 4.8 0.00 1.52 0.00 92 1007.6
20260506040450 11 349 3.2 4.8 0.00 1.52 0.00 92 1007.6
20260506040350 11 351 3.2 3.2 0.00 1.52 0.00 92 1007.6
20260506040309 11 351 3.2 3.2 0.00 1.52 0.00 92 1007.6
20260506040251 11 354 1.6 3.2 0.00 1.52 0.00 92 1007.6
20260506040151 11 354 1.6 3.2 0.00 1.52 0.00 92 1007.6
20260506040051 11 355 1.6 3.2 0.00 1.52 0.00 92 1007.6
20260506040009 11 355 1.6 3.2 0.00 1.52 0.00 92 1007.6
20260506035951 11 356 1.6 3.2 0.00 1.52 0.00 92 1007.7
20260506035849 11 357 1.6 3.2 0.00 1.52 0.00 92 1007.7
20260506035749 11 357 1.6 3.2 0.00 1.52 0.00 92 1007.7
20260506035709 11 357 1.6 3.2 0.00 1.52 0.00 92 1007.7
20260506035651 11 357 1.6 4.8 0.00 1.52 0.00 92 1007.7
20260506035550 11 355 3.2 4.8 0.00 1.52 0.00 92 1007.6
20260506035450 11 355 3.2 4.8 0.00 1.52 0.00 92 1007.7
20260506035408 11 355 3.2 4.8 0.00 1.52 0.00 92 1007.7
20260506035349 11 352 3.2 4.8 0.00 1.52 0.00 92 1007.7
20260506035249 11 349 3.2 4.8 0.00 1.55 0.00 92 1007.8
20260506035151 11 348 3.2 4.8 0.00 1.55 0.00 92 1007.7
20260506035109 11 348 3.2 4.8 0.00 1.55 0.00 92 1007.7
20260506035051 11 347 3.2 4.8 0.00 1.55 0.00 92 1007.7
20260506034951 11 347 3.2 4.8 0.00 1.55 0.00 92 1007.7
20260506034851 11 345 3.2 4.8 0.00 1.55 0.00 92 1007.7
20260506034809 11 345 3.2 4.8 0.00 1.55 0.00 92 1007.7
20260506034751 11 343 3.2 4.8 0.00 1.55 0.00 92 1007.7
20260506034651 11 341 3.2 4.8 0.00 1.55 0.00 92 1007.7
20260506034551 11 341 3.2 4.8 0.00 1.55 0.00 92 1007.7
20260506034508 11 341 3.2 4.8 0.00 1.55 0.00 92 1007.7
20260506034450 11 338 3.2 4.8 0.00 1.55 0.00 92 1007.8
20260506034351 11 337 3.2 4.8 0.00 1.55 0.00 92 1007.7
20260506034251 11 334 3.2 4.8 0.00 1.55 0.00 92 1007.8
20260506034208 11 334 3.2 4.8 0.00 1.55 0.00 92 1007.8
20260506034151 11 332 1.6 4.8 0.00 1.55 0.00 92 1007.8
20260506034050 11 330 1.6 4.8 0.00 1.57 0.00 92 1007.7
20260506033950 11 326 1.6 4.8 0.00 1.57 0.00 92 1007.8
20260506033908 11 326 1.6 4.8 0.00 1.57 0.00 92 1007.8
20260506033851 11 326 1.6 3.2 0.00 1.57 0.00 92 1007.9
20260506033749 11 327 1.6 3.2 0.00 1.57 0.00 92 1007.8
20260506033651 11 326 1.6 3.2 0.00 1.57 0.00 92 1007.7
20260506033609 11 326 1.6 3.2 0.00 1.57 0.00 92 1007.7
20260506033551 11 326 1.6 3.2 0.00 1.57 0.00 92 1007.7
20260506033450 11 327 1.6 4.8 0.00 1.57 0.00 92 1007.8
20260506033350 11 327 1.6 4.8 0.00 1.57 0.00 92 1007.8
20260506033308 11 327 1.6 4.8 0.00 1.57 0.00 92 1007.8
20260506033250 11 328 1.6 4.8 0.00 1.57 0.00 92 1007.8
20260506033150 11 328 3.2 4.8 0.00 1.57 0.00 92 1007.8
20260506033050 11 328 3.2 4.8 0.00 1.57 0.00 92 1007.8
20260506033007 11 328 3.2 4.8 0.00 1.57 0.00 92 1007.8
20260506032951 11 327 3.2 4.8 0.00 1.57 0.00 92 1007.8
20260506032850 11 326 3.2 4.8 0.00 1.57 0.00 92 1007.9
20260506032750 11 325 1.6 4.8 0.00 1.57 0.00 92 1007.9
20260506032708 11 325 1.6 4.8 0.00 1.57 0.00 92 1007.9
20260506032649 11 325 1.6 4.8 0.00 1.57 0.00 92 1007.9
20260506032550 11 325 1.6 4.8 0.00 1.57 0.00 92 1007.8
20260506032450 11 323 1.6 4.8 0.00 1.57 0.00 92 1007.9
20260506032407 11 323 1.6 4.8 0.00 1.57 0.00 92 1007.9
20260506032351 11 322 1.6 3.2 0.00 1.57 0.00 92 1007.9
20260506032251 11 323 1.6 3.2 0.00 1.57 0.00 92 1007.9
20260506032151 11 323 1.6 3.2 0.00 1.57 0.00 92 1007.9
20260506032108 11 323 1.6 3.2 0.00 1.57 0.00 92 1007.9
20260506032050 11 323 1.6 3.2 0.00 1.57 0.00 92 1008.0
20260506031950 11 323 1.6 3.2 0.00 1.57 0.00 92 1007.9
20260506031849 11 323 1.6 3.2 0.00 1.57 0.00 92 1008.0
20260506031809 11 323 1.6 3.2 0.00 1.57 0.00 92 1008.0
20260506031751 11 323 1.6 3.2 0.00 1.57 0.00 92 1008.0
20260506031651 11 323 1.6 3.2 0.00 1.57 0.00 92 1008.1
20260506031551 11 323 1.6 3.2 0.00 1.57 0.00 92 1008.1
20260506031509 11 323 1.6 3.2 0.00 1.57 0.00 92 1008.1
20260506031450 11 323 1.6 3.2 0.00 1.57 0.00 92 1008.1
20260506031349 11 323 1.6 3.2 0.00 1.57 0.00 92 1008.2
20260506031249 11 323 1.6 3.2 0.00 1.57 0.00 92 1008.1
20260506031209 11 323 1.6 3.2 0.00 1.57 0.00 92 1008.1
20260506031151 11 323 1.6 3.2 0.00 1.57 0.00 92 1008.2
20260506031051 11 323 1.6 3.2 0.00 1.57 0.00 92 1008.3
20260506030951 11 323 1.6 3.2 0.00 1.57 0.00 92 1008.2
20260506030908 11 323 1.6 3.2 0.00 1.57 0.00 92 1008.2
20260506030849 11 323 1.6 3.2 0.00 1.57 0.00 92 1008.2
20260506030749 11 323 1.6 3.2 0.00 1.57 0.00 92 1008.2
20260506030650 11 323 0.0 1.6 0.00 1.57 0.00 92 1008.3
20260506030608 11 323 0.0 1.6 0.00 1.57 0.00 92 1008.3
20260506030550 11 323 1.6 1.6 0.00 1.57 0.00 92 1008.4
20260506030450 11 323 1.6 1.6 0.00 1.57 0.00 92 1008.3
20260506030349 11 323 1.6 1.6 0.00 1.57 0.00 92 1008.3
20260506030309 11 323 1.6 1.6 0.00 1.57 0.00 92 1008.3
20260506030251 11 323 1.6 3.2 0.00 1.57 0.00 92 1008.2
20260506030151 11 323 1.6 3.2 0.00 1.57 0.00 92 1008.3
20260506030051 11 323 1.6 3.2 0.00 1.57 0.00 92 1008.3
20260506030009 11 323 1.6 3.2 0.00 1.57 0.00 92 1008.3
20260506025951 11 323 1.6 3.2 0.00 1.57 0.00 92 1008.4
20260506025849 11 323 1.6 3.2 0.00 1.57 0.00 92 1008.3
20260506025749 11 323 1.6 3.2 0.00 1.57 0.00 92 1008.5
20260506025709 11 323 1.6 3.2 0.00 1.57 0.00 92 1008.5
20260506025651 11 323 1.6 3.2 0.00 1.57 0.00 92 1008.5
20260506025551 11 323 1.6 3.2 0.00 1.57 0.00 92 1008.5
20260506025451 11 323 1.6 3.2 0.00 1.57 0.00 92 1008.5
20260506025408 11 323 1.6 3.2 0.00 1.57 0.00 92 1008.5
20260506025350 11 323 1.6 4.8 0.00 1.57 0.00 92 1008.5
20260506025250 11 323 1.6 4.8 0.00 1.57 0.00 92 1008.5
20260506025150 11 324 1.6 4.8 0.00 1.57 0.00 92 1008.6
20260506025108 11 324 1.6 4.8 0.00 1.57 0.00 92 1008.6
20260506025050 11 325 3.2 4.8 0.00 1.57 0.00 92 1008.6
20260506024950 11 325 3.2 4.8 0.00 1.57 0.00 92 1008.6
20260506024849 11 326 3.2 4.8 0.00 1.57 0.00 92 1008.6
20260506024809 11 326 3.2 4.8 0.00 1.57 0.00 92 1008.6
20260506024751 11 329 3.2 4.8 0.00 1.57 0.00 92 1008.6
20260506024651 11 332 3.2 4.8 0.00 1.57 0.00 92 1008.6
20260506024551 11 334 3.2 4.8 0.00 1.57 0.00 92 1008.6
20260506024508 11 334 3.2 4.8 0.00 1.57 0.00 92 1008.6
20260506024450 11 336 3.2 4.8 0.00 1.57 0.00 92 1008.6
20260506024350 11 338 3.2 4.8 0.00 1.57 0.00 92 1008.6
20260506024250 11 339 3.2 4.8 0.00 1.57 0.00 92 1008.6
20260506024208 11 339 3.2 4.8 0.00 1.57 0.00 92 1008.6
20260506024150 11 343 3.2 4.8 0.00 1.57 0.00 92 1008.6
20260506024049 11 344 3.2 4.8 0.00 1.57 0.00 92 1008.6
20260506023949 11 347 1.6 4.8 0.00 1.57 0.00 92 1008.7
20260506023908 11 347 1.6 4.8 0.00 1.57 0.00 92 1008.7
20260506023850 11 349 1.6 4.8 0.00 1.57 0.00 92 1008.7
20260506023750 11 349 1.6 4.8 0.00 1.57 0.00 92 1008.6
20260506023650 11 348 1.6 4.8 0.00 1.57 0.00 92 1008.6
20260506023608 11 348 1.6 4.8 0.00 1.57 0.00 92 1008.6
20260506023550 11 349 1.6 4.8 0.00 1.57 0.00 92 1008.6
20260506023450 11 351 0.0 4.8 0.00 1.57 0.00 92 1008.5
20260506023350 11 352 0.0 4.8 0.00 1.57 0.00 92 1008.5
20260506023308 11 352 0.0 4.8 0.00 1.57 0.00 92 1008.5
20260506023250 11 353 0.0 4.8 0.00 1.57 0.00 92 1008.6
20260506023150 11 342 0.0 1.6 0.00 1.57 0.00 92 1008.6
20260506023050 11 330 0.0 0.0 0.00 1.57 0.00 92 1008.6
20260506023008 11 330 0.0 0.0 0.00 1.57 0.00 92 1008.6
20260506022950 11 330 0.0 0.0 0.00 1.57 0.00 92 1008.7
20260506022850 11 330 0.0 0.0 0.00 1.57 0.00 92 1008.7
20260506022750 11 330 0.0 1.6 0.00 1.57 0.00 92 1008.8
20260506022709 11 330 0.0 1.6 0.00 1.57 0.00 92 1008.8
20260506022651 11 327 0.0 4.8 0.00 1.57 0.00 92 1008.8
20260506022551 11 321 0.0 4.8 0.00 1.57 0.00 92 1008.8
20260506022451 11 320 0.0 4.8 0.00 1.57 0.00 92 1008.8
20260506022408 11 320 0.0 4.8 0.00 1.57 0.00 92 1008.8
20260506022349 11 325 1.6 4.8 0.00 1.57 0.00 92 1008.8
20260506022250 11 326 1.6 4.8 0.00 1.57 0.00 92 1008.8
20260506022150 11 329 1.6 4.8 0.00 1.57 0.00 92 1008.7
20260506022108 11 329 1.6 4.8 0.00 1.57 0.00 92 1008.7
20260506022050 11 332 1.6 4.8 0.00 1.57 0.00 92 1008.9
20260506021950 11 332 1.6 4.8 0.00 1.57 0.00 92 1008.8
20260506021851 11 333 1.6 4.8 0.00 1.57 0.00 92 1008.7
20260506021808 11 333 1.6 4.8 0.00 1.57 0.00 92 1008.7
20260506021750 11 333 1.6 4.8 0.00 1.57 0.00 92 1008.8
20260506021650 11 335 1.6 4.8 0.00 1.57 0.00 92 1008.8
20260506021550 11 339 1.6 4.8 0.00 1.57 0.00 91 1008.8
20260506021508 11 339 1.6 4.8 0.00 1.57 0.00 91 1008.8
20260506021450 11 345 1.6 4.8 0.00 1.57 0.00 92 1008.8
20260506021350 11 344 0.0 3.2 0.00 1.57 0.00 92 1008.8
20260506021250 11 353 0.0 3.2 0.00 1.57 0.00 92 1008.8
20260506021208 11 353 0.0 3.2 0.00 1.57 0.00 92 1008.8
20260506021150 11 356 0.0 3.2 0.00 1.57 0.00 92 1008.8
20260506021050 11 357 0.0 0.0 0.00 1.57 0.00 92 1008.8
20260506020950 11 357 0.0 0.0 0.00 1.57 0.00 92 1008.8
20260506020907 11 357 0.0 1.6 0.00 1.57 0.00 92 1008.9
20260506020851 11 357 0.0 1.6 0.00 1.57 0.00 92 1008.9
20260506020751 11 357 0.0 1.6 0.00 1.57 0.00 91 1008.9
20260506020651 11 358 0.0 1.6 0.00 1.57 0.00 91 1008.9
20260506020609 11 355 0.0 1.6 0.00 1.57 0.00 91 1008.9
20260506020551 11 355 0.0 1.6 0.00 1.57 0.00 91 1008.9
20260506020451 11 347 1.6 4.8 0.00 1.57 0.00 92 1009.0
20260506020349 11 342 1.6 4.8 0.00 1.57 0.00 92 1009.0
20260506020307 11 342 1.6 4.8 0.00 1.57 0.00 92 1009.0
20260506020249 11 340 1.6 6.4 0.00 1.57 0.00 92 1009.0
20260506020149 11 338 1.6 6.4 0.00 1.57 0.00 92 1009.0
20260506020049 11 337 1.6 6.4 0.00 1.57 0.00 92 1009.0
20260506020009 11 337 1.6 6.4 0.00 1.57 0.00 92 1009.0
20260506015951 11 336 3.2 6.4 0.00 1.57 0.00 92 1009.0
20260506015850 11 335 3.2 6.4 0.00 1.57 0.00 92 1008.9
20260506015750 11 333 1.6 6.4 0.00 1.57 0.00 91 1009.0
20260506015708 11 333 1.6 6.4 0.00 1.57 0.00 91 1009.0
20260506015650 11 331 1.6 6.4 0.00 1.57 0.00 91 1009.0
20260506015550 11 330 1.6 6.4 0.00 1.57 0.00 91 1008.9
20260506015450 11 332 1.6 6.4 0.00 1.57 0.00 91 1008.9
20260506015407 11 332 1.6 6.4 0.00 1.57 0.00 91 1008.9
20260506015350 11 332 1.6 4.8 0.00 1.57 0.00 91 1008.9
20260506015250 11 333 1.6 3.2 0.00 1.57 0.00 91 1009.0
20260506015150 11 332 1.6 3.2 0.00 1.57 0.00 91 1008.9
20260506015108 11 332 1.6 3.2 0.00 1.57 0.00 91 1008.9
20260506015050 11 332 1.6 3.2 0.00 1.57 0.00 91 1008.9
20260506014950 12 333 1.6 1.6 0.00 1.57 0.00 91 1009.0
20260506014850 12 331 1.6 1.6 0.00 1.57 0.00 91 1009.0
20260506014808 12 331 1.6 1.6 0.00 1.57 0.00 91 1009.0
20260506014750 12 330 1.6 1.6 0.00 1.57 0.00 91 1009.0
20260506014650 12 329 1.6 1.6 0.00 1.57 0.00 91 1009.0
20260506014550 12 326 1.6 1.6 0.00 1.57 0.00 92 1009.0
20260506014508 12 326 1.6 1.6 0.00 1.57 0.00 92 1009.0
20260506014450 12 325 0.0 1.6 0.00 1.57 0.00 91 1009.0
20260506014350 12 323 0.0 1.6 0.00 1.57 0.00 91 1008.9
20260506014250 12 322 0.0 1.6 0.00 1.57 0.00 91 1008.9
20260506014208 12 322 0.0 1.6 0.00 1.57 0.00 91 1008.9
20260506014150 12 318 0.0 1.6 0.00 1.57 0.00 91 1009.0
20260506014050 12 314 0.0 1.6 0.00 1.57 0.00 92 1009.0
20260506013950 12 307 0.0 1.6 0.00 1.57 0.00 92 1009.0
20260506013907 12 307 0.0 1.6 0.00 1.57 0.00 92 1009.0
20260506013850 12 301 0.0 0.0 0.00 1.57 0.00 92 1009.0
20260506013750 12 301 0.0 0.0 0.00 1.57 0.00 92 1009.0
20260506013650 11 301 0.0 0.0 0.00 1.57 0.00 92 1009.0
20260506013608 11 301 0.0 0.0 0.00 1.57 0.00 92 1009.0
20260506013550 11 302 0.0 1.6 0.00 1.57 0.00 92 1009.1
20260506013450 11 313 0.0 1.6 0.00 1.57 0.00 91 1009.1
20260506013351 11 317 0.0 1.6 0.00 1.57 0.00 91 1009.0
20260506013309 11 317 0.0 1.6 0.00 1.57 0.00 91 1009.0
20260506013251 11 322 0.0 1.6 0.00 1.57 0.00 91 1009.0
20260506013151 12 325 0.0 1.6 0.00 1.57 0.00 92 1009.0
20260506013051 11 325 0.0 1.6 0.00 1.57 0.00 92 1009.0
20260506013008 11 325 0.0 1.6 0.00 1.57 0.00 92 1009.0
20260506012950 11 328 0.0 1.6 0.00 1.57 0.00 92 1009.0
20260506012849 11 333 0.0 1.6 0.00 1.57 0.00 92 1008.9
20260506012749 11 334 0.0 1.6 0.00 1.57 0.00 92 1009.1
20260506012709 11 334 0.0 1.6 0.00 1.57 0.00 92 1009.1
20260506012651 11 336 0.0 1.6 0.00 1.57 0.00 92 1009.0
20260506012551 11 346 0.0 1.6 0.00 1.57 0.00 92 1009.1
20260506012451 11 350 0.0 0.0 0.00 1.57 0.00 92 1009.2
20260506012408 11 350 0.0 0.0 0.00 1.57 0.00 92 1009.2
20260506012350 11 350 0.0 0.0 0.00 1.57 0.00 92 1009.1
20260506012249 11 350 0.0 0.0 0.00 1.57 0.00 92 1009.0
20260506012150 11 350 0.0 0.0 0.00 1.57 0.00 92 1009.0
20260506012108 11 350 0.0 0.0 0.00 1.57 0.00 92 1009.0
20260506012050 12 350 0.0 0.0 0.00 1.57 0.00 92 1009.1
20260506011950 11 349 0.0 1.6 0.00 1.57 0.00 92 1009.0
20260506011850 12 349 0.0 1.6 0.00 1.57 0.00 92 1009.0
20260506011808 12 349 0.0 1.6 0.00 1.57 0.00 92 1009.0
20260506011750 12 349 0.0 1.6 0.00 1.57 0.00 92 1009.1
20260506011650 12 349 0.0 1.6 0.00 1.57 0.00 92 1009.0
20260506011550 11 349 0.0 1.6 0.00 1.57 0.00 92 1009.0
20260506011508 11 349 0.0 1.6 0.00 1.57 0.00 92 1009.1
20260506011450 11 349 0.0 1.6 0.00 1.57 0.00 92 1009.1
20260506011350 11 349 0.0 1.6 0.00 1.57 0.00 92 1009.2
20260506011250 11 349 0.0 1.6 0.00 1.57 0.00 92 1009.1
20260506011208 11 349 0.0 1.6 0.00 1.57 0.00 92 1009.1
20260506011150 11 349 0.0 1.6 0.00 1.57 0.00 92 1009.2
20260506011050 11 349 0.0 1.6 0.00 1.57 0.00 92 1009.2
20260506010950 11 349 0.0 1.6 0.00 1.57 0.00 92 1009.2
20260506010907 11 349 0.0 1.6 0.00 1.57 0.00 92 1009.2
20260506010851 11 350 0.0 1.6 0.00 1.57 0.00 92 1009.3
20260506010751 11 350 0.0 1.6 0.00 1.57 0.00 92 1009.2
20260506010651 11 350 0.0 1.6 0.00 1.57 0.00 92 1009.3
20260506010608 11 350 0.0 1.6 0.00 1.57 0.00 92 1009.3
20260506010550 11 349 0.0 1.6 0.00 1.57 0.00 92 1009.3
20260506010450 11 347 0.0 3.2 0.00 1.57 0.00 92 1009.3
20260506010351 11 345 0.0 3.2 0.00 1.57 0.00 92 1009.5
20260506010308 11 345 0.0 3.2 0.00 1.57 0.00 92 1009.5
20260506010250 11 344 0.0 3.2 0.00 1.57 0.00 92 1009.4
20260506010150 11 345 0.0 3.2 0.00 1.57 0.00 92 1009.4
20260506010050 11 345 0.0 3.2 0.00 1.57 0.00 92 1009.6
20260506010008 11 345 0.0 3.2 0.00 1.57 0.00 92 1009.6
20260506005950 11 345 0.0 3.2 0.00 1.57 0.00 92 1009.5
20260506005851 11 345 0.0 3.2 0.00 1.57 0.00 92 1009.5
20260506005751 11 345 0.0 3.2 0.00 1.57 0.00 92 1009.5
20260506005709 11 345 0.0 3.2 0.00 1.57 0.00 92 1009.5
20260506005651 11 345 0.0 3.2 0.00 1.57 0.00 91 1009.5
20260506005551 11 346 0.0 3.2 0.00 1.57 0.00 92 1009.5
20260506005451 11 352 0.0 1.6 0.00 1.57 0.00 91 1009.4
20260506005407 11 352 0.0 1.6 0.00 1.57 0.00 91 1009.4
20260506005350 11 353 0.0 1.6 0.00 1.57 0.00 91 1009.4
20260506005250 12 350 0.0 1.6 0.00 1.57 0.00 92 1009.4
20260506005150 11 347 0.0 1.6 0.00 1.57 0.00 92 1009.5
20260506005108 11 347 0.0 1.6 0.00 1.57 0.00 92 1009.5
20260506005050 11 346 0.0 1.6 0.00 1.57 0.00 92 1009.5
20260506004950 11 342 0.0 1.6 0.00 1.57 0.00 91 1009.5
20260506004850 11 338 0.0 1.6 0.00 1.57 0.00 92 1009.5
20260506004807 11 338 0.0 1.6 0.00 1.57 0.00 92 1009.5
20260506004749 11 336 0.0 1.6 0.00 1.57 0.00 91 1009.6
20260506004651 11 331 0.0 1.6 0.00 1.57 0.00 91 1009.5
20260506004551 11 326 0.0 1.6 0.00 1.57 0.00 91 1009.6
20260506004508 11 326 0.0 1.6 0.00 1.57 0.00 91 1009.6
20260506004450 11 317 0.0 1.6 0.00 1.57 0.00 91 1009.6
20260506004351 11 315 0.0 1.6 0.00 1.57 0.00 92 1009.6
20260506004251 11 315 0.0 1.6 0.00 1.57 0.00 92 1009.7
20260506004208 11 315 0.0 1.6 0.00 1.57 0.00 92 1009.7
20260506004150 11 315 0.0 1.6 0.00 1.57 0.00 92 1009.8
20260506004050 11 315 1.6 1.6 0.00 1.57 0.00 91 1009.8
20260506003950 11 316 1.6 3.2 0.00 1.57 0.00 91 1009.8
20260506003909 11 316 1.6 3.2 0.00 1.57 0.00 91 1009.8
20260506003850 11 318 1.6 4.8 0.00 1.57 0.00 91 1009.8
20260506003750 11 318 1.6 4.8 0.00 1.57 0.00 91 1009.8
20260506003650 11 317 1.6 4.8 0.00 1.57 0.00 91 1009.7
20260506003607 11 317 1.6 4.8 0.00 1.57 0.00 91 1009.7
20260506003549 11 314 1.6 4.8 0.00 1.57 0.00 91 1009.8
20260506003451 11 313 1.6 4.8 0.00 1.57 0.00 92 1009.8
20260506003349 11 315 3.2 4.8 0.00 1.57 0.00 91 1009.8
20260506003308 11 315 3.2 4.8 0.00 1.57 0.00 91 1009.8
20260506003250 11 317 3.2 4.8 0.00 1.57 0.00 91 1009.7
20260506003150 11 319 3.2 4.8 0.00 1.57 0.00 91 1009.7
20260506003050 11 320 3.2 4.8 0.00 1.57 0.00 91 1009.7
20260506003008 11 320 3.2 4.8 0.00 1.57 0.00 91 1009.7
20260506002950 11 321 1.6 4.8 0.00 1.57 0.00 91 1009.6
20260506002849 11 320 1.6 4.8 0.00 1.57 0.00 92 1009.7
20260506002749 11 322 1.6 4.8 0.00 1.57 0.00 92 1009.6
20260506002709 11 322 1.6 4.8 0.00 1.57 0.00 92 1009.6
20260506002651 11 325 1.6 4.8 0.00 1.57 0.00 92 1009.7
20260506002551 11 331 1.6 3.2 0.00 1.57 0.00 91 1009.7
20260506002451 11 335 1.6 3.2 0.00 1.57 0.00 91 1009.7
20260506002408 11 335 1.6 3.2 0.00 1.57 0.00 91 1009.7
20260506002349 11 335 1.6 3.2 0.00 1.57 0.00 91 1009.6
20260506002249 11 335 1.6 3.2 0.00 1.57 0.00 91 1009.6
20260506002149 11 335 0.0 1.6 0.00 1.57 0.00 91 1009.6
20260506002109 11 335 0.0 1.6 0.00 1.57 0.00 91 1009.6
20260506002051 11 335 0.0 1.6 0.00 1.57 0.00 91 1009.6
20260506001951 11 335 0.0 1.6 0.00 1.57 0.00 91 1009.7
20260506001850 11 335 0.0 1.6 0.00 1.57 0.00 91 1009.7
20260506001808 11 336 1.6 3.2 0.00 1.57 0.00 91 1009.6
20260506001750 11 336 1.6 3.2 0.00 1.57 0.00 91 1009.6
20260506001650 11 336 1.6 3.2 0.00 1.57 0.00 92 1009.7
20260506001550 11 335 1.6 3.2 0.00 1.57 0.00 91 1009.8
20260506001507 11 335 1.6 3.2 0.00 1.57 0.00 91 1009.8
20260506001451 11 335 1.6 3.2 0.00 1.57 0.00 91 1009.8
20260506001350 11 335 1.6 3.2 0.00 1.57 0.00 92 1009.8
20260506001250 11 335 1.6 3.2 0.00 1.57 0.00 91 1009.7
20260506001208 11 335 1.6 3.2 0.00 1.57 0.00 91 1009.7
20260506001150 11 335 1.6 3.2 0.00 1.57 0.00 91 1009.8
20260506001050 11 335 1.6 3.2 0.00 1.57 0.00 91 1009.7
20260506000950 11 335 1.6 3.2 0.00 1.57 0.00 91 1009.7
20260506000908 11 335 1.6 3.2 0.00 1.57 0.00 91 1009.7
20260506000849 11 335 1.6 3.2 0.00 1.57 0.00 91 1009.5
20260506000749 11 335 1.6 3.2 0.00 1.57 0.00 91 1009.8
20260506000649 11 335 1.6 3.2 0.00 1.57 0.00 91 1009.8
20260506000609 11 335 1.6 3.2 0.00 1.57 0.00 91 1009.8
20260506000551 11 335 0.0 3.2 0.00 1.57 0.00 91 1009.8
20260506000451 12 335 0.0 1.6 0.00 1.57 0.00 91 1009.7
20260506000350 11 335 0.0 1.6 0.00 1.57 0.00 91 1009.7
20260506000309 11 335 0.0 1.6 0.00 1.57 0.00 91 1009.7
20260506000250 11 336 0.0 1.6 0.00 1.57 0.00 91 1009.7
20260506000150 12 336 0.0 1.6 0.00 1.57 0.00 91 1009.7
20260506000050 12 335 0.0 1.6 0.00 1.57 0.00 91 1009.8
20260506000008 12 335 0.0 1.6 0.00 1.57 0.00 91 1009.8
20260505235950 12 335 0.0 0.0 0.00 1.57 0.00 91 1009.8
20260505235849 12 335 0.0 0.0 0.00 1.57 0.00 91 1009.9
20260505235749 12 335 0.0 0.0 0.00 1.57 0.00 91 1009.8
20260505235709 12 335 0.0 0.0 0.00 1.57 0.00 91 1009.8
20260505235651 12 335 0.0 0.0 0.00 1.57 0.00 91 1009.9
20260505235551 12 336 0.0 0.0 0.00 1.57 0.00 91 1009.8
20260505235451 12 335 0.0 0.0 0.00 1.57 0.00 91 1009.7
20260505235408 12 335 0.0 0.0 0.00 1.57 0.00 91 1009.7
20260505235350 12 335 0.0 0.0 0.00 1.57 0.00 91 1009.8
20260505235250 12 335 0.0 1.6 0.00 1.57 0.00 91 1009.9
20260505235149 12 336 0.0 1.6 0.00 1.57 0.00 91 1009.9
20260505235107 12 336 0.0 1.6 0.00 1.57 0.00 91 1009.9
20260505235049 12 338 0.0 1.6 0.00 1.57 0.00 91 1009.9
20260505234951 12 340 0.0 1.6 0.00 1.57 0.00 91 1010.0
20260505234849 12 341 0.0 1.6 0.00 1.57 0.00 91 1010.0
20260505234807 12 341 0.0 1.6 0.00 1.57 0.00 91 1010.0
20260505234749 12 342 0.0 1.6 0.00 1.57 0.00 91 1010.0
20260505234651 12 340 0.0 1.6 0.00 1.57 0.00 91 1010.0
20260505234551 12 338 0.0 1.6 0.00 1.57 0.00 91 1010.0
20260505234508 12 338 0.0 1.6 0.00 1.57 0.00 91 1010.0
20260505234450 12 336 0.0 1.6 0.00 1.57 0.00 91 1010.1
20260505234350 12 334 0.0 1.6 0.00 1.57 0.00 91 1010.1
20260505234250 12 332 0.0 1.6 0.00 1.57 0.00 91 1010.1
20260505234207 12 332 0.0 1.6 0.00 1.57 0.00 91 1010.1
20260505234149 12 331 0.0 1.6 0.00 1.57 0.00 91 1010.1
20260505234049 12 329 0.0 1.6 0.00 1.57 0.00 91 1010.0
20260505233949 12 323 0.0 1.6 0.00 1.57 0.00 91 1010.0
20260505233909 12 323 0.0 1.6 0.00 1.57 0.00 91 1010.0
20260505233850 12 317 0.0 1.6 0.00 1.57 0.00 91 1010.1
20260505233750 12 309 0.0 1.6 0.00 1.57 0.00 91 1010.1
20260505233650 12 309 0.0 1.6 0.00 1.57 0.00 91 1010.2
20260505233608 12 309 0.0 1.6 0.00 1.57 0.00 91 1010.2
20260505233550 12 309 0.0 1.6 0.00 1.57 0.00 91 1010.1
20260505233450 12 309 0.0 1.6 0.00 1.57 0.00 91 1010.2
20260505233349 12 309 0.0 1.6 0.00 1.57 0.00 91 1010.3
20260505233309 12 309 0.0 1.6 0.00 1.57 0.00 91 1010.3
20260505233251 11 309 0.0 0.0 0.00 1.57 0.00 91 1010.3
20260505233151 11 309 0.0 0.0 0.00 1.57 0.00 91 1010.3
20260505233051 11 310 0.0 1.6 0.00 1.57 0.00 91 1010.2
20260505233009 11 310 0.0 1.6 0.00 1.57 0.00 91 1010.2
20260505232951 11 309 0.0 1.6 0.00 1.57 0.00 91 1010.3
20260505232849 12 310 0.0 1.6 0.00 1.57 0.00 91 1010.3
20260505232749 12 310 0.0 1.6 0.00 1.57 0.00 91 1010.3
20260505232709 12 310 0.0 1.6 0.00 1.57 0.00 91 1010.3
20260505232651 12 309 0.0 3.2 0.00 1.57 0.00 91 1010.2
20260505232551 12 306 0.0 3.2 0.00 1.57 0.00 91 1010.2
20260505232451 12 304 0.0 3.2 0.00 1.57 0.00 91 1010.2
20260505232408 12 303 0.0 3.2 0.00 1.57 0.00 91 1010.1
20260505232349 12 303 0.0 3.2 0.00 1.57 0.00 91 1010.1
20260505232250 12 303 0.0 3.2 0.00 1.57 0.00 91 1010.2
20260505232150 12 301 0.0 3.2 0.00 1.57 0.00 91 1010.3
20260505232108 12 301 0.0 3.2 0.00 1.57 0.00 91 1010.3
20260505232050 12 299 0.0 3.2 0.00 1.57 0.00 91 1010.2
20260505231950 12 299 0.0 3.2 0.00 1.57 0.00 91 1010.2
20260505231851 12 299 0.0 3.2 0.00 1.57 0.00 91 1010.2
20260505231808 12 299 0.0 3.2 0.00 1.57 0.00 91 1010.2
20260505231750 12 297 0.0 3.2 0.00 1.57 0.00 91 1010.3
20260505231650 12 294 0.0 1.6 0.00 1.57 0.00 91 1010.3
20260505231550 12 298 0.0 1.6 0.00 1.57 0.00 91 1010.4
20260505231508 12 298 0.0 1.6 0.00 1.57 0.00 91 1010.4
20260505231450 12 304 0.0 1.6 0.00 1.57 0.00 91 1010.4
20260505231350 12 310 0.0 1.6 0.00 1.57 0.00 91 1010.4
20260505231250 12 322 0.0 1.6 0.00 1.57 0.00 91 1010.4
20260505231208 12 322 0.0 1.6 0.00 1.57 0.00 91 1010.4
20260505231150 12 334 0.0 3.2 0.00 1.57 0.00 91 1010.4
20260505231050 12 345 0.0 3.2 0.00 1.57 0.00 91 1010.5
20260505230950 12 347 0.0 3.2 0.00 1.57 0.00 91 1010.6
20260505230907 12 347 0.0 3.2 0.00 1.57 0.00 91 1010.6
20260505230851 12 348 1.6 4.8 0.00 1.57 0.00 91 1010.6
20260505230751 12 347 1.6 4.8 0.00 1.57 0.00 91 1010.5
20260505230651 11 344 1.6 4.8 0.00 1.57 0.00 91 1010.5
20260505230608 11 344 1.6 4.8 0.00 1.57 0.00 91 1010.5
20260505230550 11 343 1.6 4.8 0.00 1.57 0.00 91 1010.4
20260505230450 11 342 3.2 4.8 0.00 1.57 0.00 91 1010.4
20260505230350 11 342 3.2 4.8 0.00 1.57 0.00 91 1010.4
20260505230308 11 342 3.2 4.8 0.00 1.57 0.00 91 1010.4
20260505230249 11 340 3.2 4.8 0.00 1.57 0.00 91 1010.4
20260505230149 11 340 3.2 4.8 0.00 1.57 0.00 91 1010.4
20260505230049 11 338 3.2 4.8 0.00 1.57 0.00 91 1010.4
20260505230007 11 338 3.2 4.8 0.00 1.57 0.00 91 1010.4
20260505225951 11 336 3.2 4.8 0.00 1.57 0.00 91 1010.4
20260505225850 12 332 3.2 4.8 0.00 1.57 0.00 91 1010.4
20260505225750 12 331 3.2 4.8 0.00 1.57 0.00 91 1010.4
20260505225708 12 331 3.2 4.8 0.00 1.57 0.00 91 1010.4
20260505225650 12 330 1.6 4.8 0.00 1.57 0.00 91 1010.5
20260505225550 12 327 1.6 4.8 0.00 1.57 0.00 91 1010.5
20260505225450 12 325 1.6 4.8 0.00 1.57 0.00 91 1010.6
20260505225407 12 325 1.6 4.8 0.00 1.57 0.00 91 1010.6
20260505225349 12 323 1.6 3.2 0.00 1.57 0.00 91 1010.6
20260505225249 12 320 1.6 3.2 0.00 1.57 0.00 91 1010.7
20260505225151 12 319 1.6 3.2 0.00 1.57 0.00 91 1010.7
20260505225109 12 319 1.6 3.2 0.00 1.57 0.00 91 1010.7
20260505225051 12 319 1.6 1.6 0.00 1.57 0.00 91 1010.7
20260505224951 12 319 1.6 1.6 0.00 1.57 0.00 91 1010.7
20260505224851 12 319 1.6 1.6 0.00 1.57 0.00 91 1010.7
20260505224807 12 319 1.6 1.6 0.00 1.57 0.00 91 1010.7
20260505224749 12 319 1.6 1.6 0.00 1.57 0.00 91 1010.6
20260505224649 12 319 1.6 1.6 0.00 1.57 0.00 91 1010.7
20260505224549 12 319 1.6 1.6 0.00 1.57 0.00 91 1010.7
20260505224509 12 319 1.6 1.6 0.00 1.57 0.00 91 1010.7
20260505224451 12 319 1.6 1.6 0.00 1.57 0.00 91 1010.6
20260505224350 12 319 1.6 1.6 0.00 1.57 0.00 91 1010.6
20260505224250 12 320 0.0 1.6 0.00 1.57 0.00 91 1010.6
20260505224207 12 320 0.0 1.6 0.00 1.57 0.00 91 1010.6
20260505224149 12 321 0.0 1.6 0.00 1.57 0.00 91 1010.5
20260505224049 12 321 0.0 1.6 0.00 1.57 0.00 91 1010.6
20260505223949 12 322 0.0 1.6 0.00 1.57 0.00 91 1010.6
20260505223909 12 322 0.0 1.6 0.00 1.57 0.00 91 1010.5
20260505223850 12 322 0.0 1.6 0.00 1.57 0.00 91 1010.5
20260505223750 12 323 0.0 1.6 0.00 1.57 0.00 91 1010.6
20260505223650 12 323 0.0 1.6 0.00 1.57 0.00 91 1010.6
20260505223608 12 323 0.0 1.6 0.00 1.57 0.00 91 1010.6
20260505223550 12 323 0.0 1.6 0.00 1.57 0.00 91 1010.7
20260505223452 12 323 0.0 1.6 0.00 1.57 0.00 91 1010.6
20260505223350 12 323 0.0 1.6 0.00 1.57 0.00 91 1010.7
20260505223307 12 323 0.0 1.6 0.00 1.57 0.00 91 1010.7
20260505223249 12 323 0.0 1.6 0.00 1.57 0.00 91 1010.7
20260505223149 12 323 0.0 1.6 0.00 1.57 0.00 91 1010.7
20260505223049 12 323 0.0 1.6 0.00 1.57 0.00 91 1010.7
20260505223007 12 323 0.0 1.6 0.00 1.57 0.00 91 1010.7
20260505222951 12 323 0.0 1.6 0.00 1.57 0.00 91 1010.7
20260505222850 12 323 0.0 1.6 0.00 1.57 0.00 91 1010.7
20260505222750 12 323 0.0 0.0 0.00 1.57 0.00 91 1010.8
20260505222708 12 323 0.0 0.0 0.00 1.57 0.00 91 1010.8
20260505222650 12 323 0.0 0.0 0.00 1.57 0.00 91 1010.8
20260505222550 12 323 0.0 0.0 0.00 1.57 0.00 91 1010.7
20260505222450 11 323 0.0 0.0 0.00 1.57 0.00 91 1010.6
20260505222408 11 323 0.0 0.0 0.00 1.57 0.00 91 1010.6
20260505222349 11 323 0.0 0.0 0.00 1.57 0.00 91 1010.5
20260505222249 11 323 0.0 0.0 0.00 1.57 0.00 91 1010.6
20260505222149 11 323 0.0 0.0 0.00 1.57 0.00 91 1010.4
20260505222107 11 323 0.0 0.0 0.00 1.57 0.00 91 1010.4
20260505222049 11 323 0.0 0.0 0.00 1.57 0.00 91 1010.5
20260505221949 11 323 0.0 1.6 0.00 1.57 0.00 91 1010.5
20260505221850 11 323 0.0 1.6 0.00 1.57 0.00 91 1010.5
20260505221807 11 323 0.0 1.6 0.00 1.57 0.00 91 1010.5
20260505221749 11 323 0.0 1.6 0.00 1.57 0.00 91 1010.5
20260505221651 11 324 0.0 1.6 0.00 1.57 0.00 91 1010.5
20260505221551 11 324 0.0 1.6 0.00 1.57 0.00 91 1010.5
20260505221508 11 324 0.0 1.6 0.00 1.57 0.00 91 1010.5
20260505221451 11 324 0.0 1.6 0.00 1.57 0.00 91 1010.4
20260505221349 12 324 0.0 1.6 0.00 1.57 0.00 91 1010.4
20260505221251 12 324 0.0 1.6 0.00 1.57 0.00 91 1010.5
20260505221208 12 324 0.0 1.6 0.00 1.57 0.00 91 1010.5
20260505221150 12 323 0.0 1.6 0.00 1.57 0.00 91 1010.6
20260505221050 12 320 0.0 1.6 0.00 1.57 0.00 91 1010.6
20260505220950 12 316 1.6 1.6 0.00 1.57 0.00 91 1010.6
20260505220908 12 316 1.6 1.6 0.00 1.57 0.00 91 1010.6
20260505220849 12 312 0.0 1.6 0.00 1.57 0.00 91 1010.7
20260505220749 12 311 0.0 1.6 0.00 1.57 0.00 91 1010.6
20260505220649 12 309 0.0 1.6 0.00 1.57 0.00 91 1010.7
20260505220609 12 309 0.0 1.6 0.00 1.57 0.00 91 1010.7
20260505220551 12 306 0.0 1.6 0.00 1.57 0.00 91 1010.7
20260505220451 12 304 0.0 1.6 0.00 1.57 0.00 91 1010.7
20260505220351 12 301 0.0 1.6 0.00 1.57 0.00 91 1010.7
20260505220308 12 301 0.0 1.6 0.00 1.57 0.00 91 1010.7
20260505220250 12 294 0.0 1.6 0.00 1.57 0.00 91 1010.7
20260505220150 12 289 0.0 1.6 0.00 1.57 0.00 91 1010.7
20260505220050 12 287 0.0 1.6 0.00 1.57 0.00 91 1010.7
20260505220008 12 287 0.0 1.6 0.00 1.57 0.00 91 1010.7
20260505215950 12 285 0.0 1.6 0.00 1.57 1.57 91 1010.8
20260505215849 12 285 0.0 1.6 0.00 1.57 1.57 91 1010.8
20260505215750 12 285 0.0 1.6 0.00 1.57 1.57 91 1010.8
20260505215707 12 285 0.0 1.6 0.00 1.57 1.57 91 1010.8
20260505215649 12 285 0.0 1.6 0.00 1.57 1.57 91 1010.8
20260505215549 12 285 0.0 1.6 0.00 1.57 1.57 91 1010.9
20260505215449 12 285 0.0 1.6 0.00 1.57 1.57 91 1010.9
20260505215409 12 285 0.0 1.6 0.00 1.57 1.57 91 1010.9
20260505215351 12 285 0.0 1.6 0.00 1.57 1.57 91 1010.9
20260505215251 12 286 0.0 0.0 0.00 1.57 1.57 91 1010.9
20260505215150 12 285 0.0 0.0 0.00 1.57 1.57 91 1010.9
20260505215108 12 285 0.0 0.0 0.00 1.57 1.57 91 1011.0
20260505215050 12 285 0.0 0.0 0.00 1.57 1.57 91 1011.0
20260505214950 12 286 0.0 0.0 0.00 1.57 1.57 91 1010.9
20260505214851 12 285 0.0 0.0 0.00 1.57 1.57 91 1011.0
20260505214808 12 285 0.0 0.0 0.00 1.57 1.57 91 1011.0
20260505214750 12 285 0.0 0.0 0.00 1.57 1.57 91 1010.9
20260505214649 12 298 0.0 1.6 0.00 1.57 1.57 91 1010.9
20260505214549 12 302 0.0 1.6 0.00 1.57 1.57 91 1011.0
20260505214509 12 302 0.0 1.6 0.00 1.57 1.57 91 1011.0
20260505214451 12 305 0.0 1.6 0.00 1.57 1.57 91 1010.9
20260505214349 12 310 0.0 1.6 0.00 1.57 1.57 91 1010.9
20260505214249 12 312 0.0 1.6 0.00 1.57 1.57 91 1010.9
20260505214209 12 312 0.0 1.6 0.00 1.57 1.57 91 1010.9
20260505214151 12 314 0.0 1.6 0.00 1.57 1.57 91 1010.9
20260505214050 12 320 0.0 1.6 0.00 1.57 1.57 91 1011.0
20260505213950 12 325 0.0 1.6 0.00 1.57 1.57 91 1011.0
20260505213908 12 325 0.0 1.6 0.00 1.57 1.57 91 1011.0
20260505213849 12 332 0.0 1.6 0.00 1.57 1.57 91 1011.0
20260505213749 12 337 0.0 1.6 0.00 1.57 1.57 91 1011.0
20260505213649 12 340 0.0 1.6 0.00 1.57 1.57 91 1011.0
20260505213607 12 340 0.0 1.6 0.00 1.57 1.57 91 1011.0
20260505213549 12 340 0.0 3.2 0.00 1.57 1.57 91 1011.0
20260505213449 11 341 0.0 3.2 0.00 1.57 1.57 91 1011.0
20260505213350 12 339 1.6 3.2 0.00 1.57 1.57 91 1010.9
20260505213307 12 339 1.6 3.2 0.00 1.57 1.57 91 1010.9
20260505213249 12 337 1.6 3.2 0.00 1.57 1.57 91 1010.9
20260505213149 12 336 1.6 3.2 0.00 1.57 1.57 91 1011.0
20260505213049 11 334 1.6 3.2 0.00 1.57 1.57 91 1011.1
20260505213009 11 334 1.6 3.2 0.00 1.57 1.57 91 1011.1
20260505212951 11 332 1.6 3.2 0.00 1.57 1.57 91 1011.1
20260505212849 11 331 1.6 3.2 0.00 1.57 1.57 91 1011.0
20260505212749 12 330 1.6 3.2 0.00 1.57 1.57 91 1011.1
20260505212709 12 330 1.6 3.2 0.00 1.57 1.57 91 1011.1
20260505212651 12 328 1.6 3.2 0.00 1.57 1.57 91 1011.1
20260505212551 12 324 1.6 3.2 0.00 1.57 1.57 91 1011.1
20260505212451 12 321 1.6 3.2 0.00 1.57 1.57 91 1011.0
20260505212407 12 321 1.6 3.2 0.00 1.57 1.57 91 1011.0
20260505212349 12 319 0.0 1.6 0.00 1.57 1.57 91 1011.1
20260505212249 12 319 0.0 1.6 0.00 1.57 1.57 91 1011.2
20260505212149 11 319 0.0 1.6 0.00 1.57 1.57 91 1011.1
20260505212109 11 319 0.0 1.6 0.00 1.57 1.57 91 1011.1
20260505212051 12 319 0.0 1.6 0.00 1.57 1.57 91 1011.1
20260505211951 12 319 0.0 1.6 0.00 1.57 1.57 91 1011.1
20260505211851 11 319 0.0 1.6 0.00 1.57 1.57 91 1011.1
20260505211809 11 319 0.0 1.6 0.00 1.57 1.57 91 1011.1
20260505211751 11 319 0.0 1.6 0.00 1.57 1.57 91 1011.1
20260505211650 12 319 0.0 1.6 0.00 1.57 1.57 91 1011.2
20260505211550 12 319 0.0 3.2 0.00 1.57 1.57 91 1011.2
20260505211507 12 319 0.0 3.2 0.00 1.57 1.57 91 1011.2
20260505211451 12 321 1.6 3.2 0.00 1.57 1.57 91 1011.2
20260505211350 12 323 1.6 3.2 0.03 1.57 1.57 91 1011.2
20260505211250 12 324 1.6 3.2 0.03 1.57 1.57 91 1011.2
20260505211207 12 324 1.6 3.2 0.03 1.57 1.57 91 1011.2
20260505211149 12 324 1.6 3.2 0.03 1.57 1.57 91 1011.2
20260505211049 11 325 0.0 3.2 0.03 1.57 1.57 91 1011.3
20260505210949 11 326 0.0 3.2 0.03 1.57 1.57 91 1011.4
20260505210909 11 326 0.0 3.2 0.03 1.57 1.57 91 1011.4
20260505210850 11 327 0.0 3.2 0.03 1.57 1.57 91 1011.4
20260505210750 11 328 0.0 3.2 0.03 1.57 1.57 91 1011.3
20260505210650 11 330 0.0 3.2 0.03 1.57 1.57 91 1011.2
20260505210608 11 330 0.0 3.2 0.03 1.57 1.57 91 1011.2
20260505210550 11 333 0.0 1.6 0.03 1.57 1.57 91 1011.2
20260505210450 12 333 0.0 1.6 0.03 1.57 1.57 91 1011.2